GW6329 Weather Reports


time (UTC)temp
C
wind
direction
speed
KPH
gust
KPH
rain 1hr
cm
rain 24hr
cm
rain mn
cm
humidity
%
barometer
mb
20260507085904 20 359 0.0 1.6 0.00 0.00 0.00 54 1005.8
20260507085404 20 359 0.0 4.8 0.00 0.00 0.00 55 1005.6
20260507084905 20 359 1.6 4.8 0.00 0.00 0.00 55 1005.6
20260507084405 20 359 1.6 1.6 0.00 0.00 0.00 59 1005.5
20260507083904 19 359 0.0 1.6 0.00 0.00 0.00 59 1005.5
20260507083405 19 359 1.6 3.2 0.00 0.00 0.00 59 1005.4
20260507082905 19 359 0.0 1.6 0.00 0.00 0.00 60 1005.2
20260507082404 19 359 0.0 1.6 0.00 0.00 0.00 60 1005.1
20260507081904 19 359 0.0 3.2 0.00 0.00 0.00 63 1005.0
20260507081404 19 359 0.0 3.2 0.00 0.00 0.00 65 1004.9
20260507080905 19 359 1.6 1.6 0.00 0.00 0.00 65 1005.0
20260507080404 20 359 0.0 1.6 0.00 0.00 0.00 62 1004.8
20260507075904 20 359 0.0 1.6 0.00 0.00 0.00 63 1004.7
20260507075405 20 359 0.0 1.6 0.00 0.00 0.00 61 1004.7
20260507074904 20 359 1.6 3.2 0.00 0.00 0.00 61 1004.7
20260507074405 21 359 0.0 1.6 0.00 0.00 0.00 59 1004.6
20260507073904 21 359 0.0 3.2 0.00 0.00 0.00 58 1004.5
20260507073404 21 359 0.0 1.6 0.00 0.00 0.00 58 1004.5
20260507072904 21 359 0.0 0.0 0.00 0.00 0.00 59 1004.5
20260507072404 21 359 0.0 1.6 0.00 0.00 0.00 58 1004.5
20260507071904 21 359 0.0 3.2 0.00 0.00 0.00 57 1004.5
20260507071404 22 359 0.0 0.0 0.00 0.00 0.00 56 1004.5
20260507070904 22 359 0.0 0.0 0.00 0.00 0.00 56 1004.4
20260507070404 22 359 0.0 1.6 0.00 0.00 0.00 55 1004.3
20260507065905 22 359 0.0 1.6 0.00 0.00 0.00 54 1004.3
20260507065415 22 359 0.0 0.0 0.00 0.00 0.00 55 1004.2
20260507064904 22 359 0.0 1.6 0.00 0.00 0.00 54 1004.0
20260507062405 23 359 0.0 1.6 0.00 0.00 0.00 56 1004.0
20260507061905 23 359 0.0 1.6 0.00 0.00 0.00 57 1004.0
20260507061404 23 359 1.6 4.8 0.00 0.00 0.00 58 1003.9
20260507060929 23 359 0.0 1.6 0.00 0.00 0.00 57 1003.9
20260507060405 23 359 0.0 1.6 0.00 0.00 0.00 55 1003.8
20260507055904 23 359 0.0 4.8 0.00 0.00 0.00 55 1003.7
20260507055404 23 359 0.0 3.2 0.00 0.00 0.00 56 1003.6
20260507054905 23 359 0.0 3.2 0.00 0.00 0.00 54 1003.5
20260507054408 23 359 1.6 3.2 0.00 0.00 0.00 54 1003.5
20260507053904 24 359 1.6 4.8 0.00 0.00 0.00 55 1003.5
20260507053404 24 359 3.2 8.0 0.00 0.00 0.00 55 1003.6
20260507052904 24 359 1.6 4.8 0.00 0.00 0.00 55 1003.5
20260507052404 24 359 1.6 4.8 0.00 0.00 0.00 56 1003.6
20260507051904 24 359 1.6 3.2 0.00 0.00 0.00 58 1003.6
20260507051404 24 359 1.6 4.8 0.00 0.00 0.00 57 1003.4
20260507050904 25 213 3.2 8.0 0.00 0.00 0.00 56 1003.5
20260507050404 25 158 1.6 4.8 0.00 0.00 0.00 59 1003.6
20260507045904 25 168 0.0 3.2 0.00 0.00 0.00 59 1003.6
20260507045405 25 169 0.0 3.2 0.00 0.00 0.00 58 1003.6
20260507044904 25 184 1.6 3.2 0.00 0.00 0.00 57 1003.6
20260507044404 25 125 1.6 4.8 0.00 0.00 0.00 56 1003.4
20260507043904 25 129 1.6 3.2 0.00 0.00 0.00 57 1003.5
20260507043404 25 129 1.6 4.8 0.00 0.00 0.00 58 1003.4
20260507042904 25 147 1.6 4.8 0.00 0.00 0.00 59 1003.3
20260507042404 25 152 1.6 4.8 0.00 0.00 0.00 58 1003.4
20260507041904 25 160 1.6 1.6 0.00 0.00 0.00 62 1003.4
20260507041404 25 162 1.6 3.2 0.00 0.00 0.00 62 1003.4
20260507040904 25 163 1.6 3.2 0.00 0.00 0.00 62 1003.5
20260507040404 25 163 1.6 3.2 0.00 0.00 0.00 63 1003.4
20260507035904 25 164 0.0 1.6 0.00 0.00 0.00 63 1003.4
20260507035404 25 163 3.2 4.8 0.00 0.00 0.00 61 1003.6
20260507034903 25 165 0.0 1.6 0.00 0.00 0.00 64 1003.6
20260507034404 25 164 1.6 3.2 0.00 0.00 0.00 64 1003.6
20260507033904 25 166 0.0 4.8 0.00 0.00 0.00 63 1003.7
20260507033405 25 170 1.6 3.2 0.00 0.00 0.00 66 1003.7
20260507032905 25 173 1.6 3.2 0.00 0.00 0.00 67 1003.8
20260507032405 25 174 1.6 3.2 0.00 0.00 0.00 67 1003.8
20260507031905 25 175 1.6 1.6 0.00 0.00 0.00 69 1003.9
20260507031406 25 176 0.0 3.2 0.00 0.00 0.00 69 1004.1
20260507030906 24 176 1.6 3.2 0.00 0.00 0.00 71 1004.1
20260507030406 24 168 0.0 1.6 0.00 0.00 0.00 70 1003.9
20260507025906 24 167 1.6 3.2 0.00 0.00 0.00 70 1004.1
20260507025405 24 197 1.6 1.6 0.00 0.00 0.00 72 1004.1
20260507024905 24 199 0.0 1.6 0.00 0.00 0.00 73 1004.2
20260507024405 24 199 0.0 1.6 0.00 0.00 0.00 74 1004.2
20260507023905 24 359 0.0 3.2 0.00 0.00 0.00 75 1003.9
20260507023405 24 199 1.6 4.8 0.00 0.00 0.00 76 1004.2
20260507022905 24 199 1.6 4.8 0.00 0.00 0.00 75 1004.5
20260507022405 24 203 0.0 1.6 0.00 0.00 0.00 75 1004.6
20260507021905 23 203 1.6 4.8 0.00 0.00 0.00 76 1004.7
20260507021406 23 204 1.6 4.8 0.00 0.00 0.00 78 1004.7
20260507020905 23 204 0.0 3.2 0.00 0.00 0.00 77 1004.9
20260507020405 23 205 3.2 4.8 0.00 0.00 0.00 78 1004.9
20260507015905 23 183 1.6 4.8 0.00 0.00 0.00 79 1005.0
20260507015405 23 359 1.6 4.8 0.00 0.00 0.00 80 1004.9
20260507014905 23 223 0.0 1.6 0.00 0.00 0.00 80 1005.1
20260507014405 23 226 0.0 3.2 0.00 0.00 0.00 79 1005.4
20260507013905 23 208 3.2 11.3 0.00 0.00 0.00 79 1005.4
20260507013405 23 189 1.6 4.8 0.00 0.00 0.00 79 1005.6
20260507012905 23 189 1.6 4.8 0.00 0.00 0.00 79 1005.6
20260507012405 23 202 0.0 3.2 0.00 0.00 0.00 81 1005.7
20260507011905 22 359 0.0 3.2 0.00 0.00 0.00 83 1005.7
20260507011405 22 359 1.6 3.2 0.00 0.00 0.00 82 1005.8
20260507010404 22 359 1.6 4.8 0.00 0.00 0.00 83 1006.0
20260507005905 22 359 1.6 4.8 0.00 0.00 0.00 83 1005.9
20260507005405 22 359 0.0 1.6 0.00 0.00 0.00 83 1005.9
20260507004905 22 359 0.0 1.6 0.00 0.00 0.00 83 1005.9
20260507004404 22 359 1.6 4.8 0.00 0.00 0.00 84 1006.1
20260507003905 22 359 1.6 4.8 0.00 0.00 0.00 83 1006.2
20260507003405 22 359 0.0 1.6 0.00 0.00 0.00 83 1006.3
20260507002905 22 359 3.2 4.8 0.00 0.00 0.00 83 1006.1
20260507002404 22 359 1.6 4.8 0.00 0.00 0.00 82 1006.2
20260507001905 22 359 1.6 3.2 0.00 0.00 0.00 83 1006.2
20260507001405 22 359 1.6 3.2 0.00 0.00 0.00 83 1006.2
20260507000905 22 359 0.0 3.2 0.00 0.00 0.00 83 1006.3
20260507000405 22 207 0.0 3.2 0.00 0.00 0.00 83 1006.4
20260506235905 22 359 1.6 3.2 0.00 0.00 0.00 82 1006.5
20260506235405 23 342 1.6 1.6 0.00 0.00 0.00 82 1006.6
20260506234904 23 201 1.6 3.2 0.00 0.00 0.00 81 1006.6
20260506234405 23 201 0.0 1.6 0.00 0.00 0.00 81 1006.8
20260506233905 23 201 0.0 4.8 0.00 0.00 0.00 81 1006.9
20260506233405 23 201 1.6 4.8 0.00 0.00 0.00 80 1007.0
20260506232904 23 202 1.6 3.2 0.00 0.00 0.00 81 1006.9
20260506232404 23 202 0.0 4.8 0.00 0.00 0.00 81 1007.0
20260506231905 23 193 0.0 3.2 0.00 0.00 0.00 82 1007.0
20260506231405 23 193 0.0 1.6 0.00 0.00 0.00 83 1006.8
20260506230904 22 194 1.6 4.8 0.00 0.00 0.00 84 1007.0
20260506230405 22 209 1.6 3.2 0.00 0.00 0.00 86 1007.1
20260506225904 22 214 1.6 4.8 0.00 0.00 0.00 87 1007.0
20260506225405 21 202 1.6 4.8 0.00 0.00 0.00 89 1006.8
20260506224905 21 202 3.2 9.7 0.00 0.00 0.00 90 1006.7
20260506224405 21 212 3.2 4.8 0.00 0.00 0.00 91 1006.7
20260506223905 21 203 3.2 4.8 0.00 0.00 0.00 92 1006.6
20260506223405 21 359 3.2 4.8 0.00 0.00 0.00 92 1006.4
20260506222905 20 359 3.2 4.8 0.00 0.00 0.00 94 1006.5
20260506222404 20 359 1.6 4.8 0.00 0.00 0.00 94 1006.5
20260506221905 20 202 1.6 4.8 0.00 0.00 0.00 95 1006.4
20260506221405 20 203 3.2 4.8 0.00 0.00 0.00 95 1006.5
20260506220904 20 359 1.6 4.8 0.00 0.00 0.00 96 1006.6
20260506220404 20 359 1.6 4.8 0.00 0.00 0.00 96 1006.4
20260506215904 20 359 3.2 4.8 0.00 0.00 0.00 97 1006.3
20260506215404 20 359 3.2 4.8 0.00 0.00 0.00 97 1006.1
20260506214904 19 359 1.6 3.2 0.00 0.00 0.00 98 1006.2
20260506214404 19 359 1.6 4.8 0.00 0.00 0.00 98 1006.2
20260506213904 19 359 1.6 4.8 0.00 0.00 0.00 98 1006.0
20260506213405 19 359 1.6 3.2 0.00 0.00 0.00 98 1006.1
20260506212904 18 359 1.6 3.2 0.00 0.00 0.00 98 1005.9
20260506212404 18 359 0.0 1.6 0.00 0.00 0.00 98 1006.2
20260506211904 17 359 0.0 0.0 0.00 0.00 0.00 98 1005.8
20260506211404 17 359 0.0 0.0 0.00 0.00 0.00 97 1005.9
20260506210904 17 359 0.0 0.0 0.00 0.00 0.00 98 1005.8
20260506210404 17 359 0.0 0.0 0.00 0.00 0.00 97 1005.8
20260506205904 17 359 0.0 0.0 0.00 0.00 0.00 97 1005.6
20260506205404 16 11 0.0 0.0 0.00 0.00 0.00 97 1005.7
20260506204904 17 359 0.0 0.0 0.00 0.00 0.00 96 1005.9
20260506204404 17 359 0.0 0.0 0.00 0.03 0.00 95 1005.8
20260506203905 17 359 0.0 0.0 0.00 0.03 0.00 96 1005.8
20260506203404 17 359 0.0 0.0 0.00 0.03 0.00 96 1005.7
20260506202904 17 359 0.0 0.0 0.00 0.03 0.00 97 1005.8
20260506202404 17 359 1.6 1.6 0.00 0.03 0.00 97 1005.7
20260506201904 17 0 1.6 1.6 0.00 0.03 0.00 97 1005.7
20260506201404 17 359 1.6 3.2 0.00 0.03 0.00 97 1005.7
20260506200904 17 1 0.0 1.6 0.00 0.03 0.00 98 1005.7
20260506200404 17 0 1.6 3.2 0.00 0.03 0.00 98 1005.6
20260506195904 17 359 1.6 3.2 0.00 0.03 0.00 97 1005.6
20260506195404 16 0 1.6 3.2 0.00 0.03 0.00 97 1005.7
20260506194905 16 359 1.6 3.2 0.00 0.03 0.00 96 1005.7
20260506194404 16 0 1.6 1.6 0.00 0.03 0.00 95 1005.5
20260506193904 16 0 0.0 0.0 0.00 0.03 0.00 96 1005.3
20260506193404 16 359 0.0 0.0 0.00 0.03 0.00 96 1005.2
20260506192904 16 0 0.0 0.0 0.00 0.03 0.00 95 1005.1
20260506192404 17 359 0.0 0.0 0.00 0.03 0.00 95 1005.0
20260506191904 17 0 0.0 0.0 0.00 0.03 0.00 96 1005.0
20260506191404 17 0 0.0 0.0 0.00 0.03 0.00 96 1005.0
20260506190904 17 359 0.0 0.0 0.00 0.03 0.00 95 1004.9
20260506190404 17 359 0.0 0.0 0.00 0.03 0.00 95 1004.9
20260506185904 17 0 0.0 0.0 0.00 0.03 0.00 96 1004.9
20260506185404 17 359 0.0 0.0 0.00 0.03 0.00 95 1004.9
20260506184904 17 359 0.0 0.0 0.00 0.03 0.00 95 1004.8
20260506184404 18 359 0.0 0.0 0.00 0.03 0.00 96 1004.8
20260506183905 18 359 0.0 1.6 0.00 0.03 0.00 96 1004.9
20260506183404 18 359 0.0 1.6 0.00 0.03 0.00 96 1005.0
20260506182906 18 359 1.6 1.6 0.00 0.03 0.00 96 1005.0
20260506182405 18 359 1.6 3.2 0.00 0.03 0.00 97 1005.0
20260506181905 18 359 1.6 3.2 0.00 0.03 0.00 97 1005.1
20260506181406 18 359 1.6 3.2 0.00 0.03 0.00 97 1005.1
20260506180905 18 359 1.6 3.2 0.00 0.03 0.00 97 1005.1
20260506180405 18 359 1.6 3.2 0.00 0.03 0.00 97 1005.1
20260506175906 18 359 1.6 3.2 0.00 0.03 0.00 97 1005.1
20260506175405 18 359 1.6 3.2 0.00 0.03 0.00 97 1005.1
20260506174905 18 0 1.6 3.2 0.00 0.03 0.00 97 1005.1
20260506174406 18 359 1.6 3.2 0.00 0.03 0.00 96 1005.1
20260506173906 18 359 1.6 3.2 0.00 0.03 0.00 97 1005.2
20260506173405 17 359 0.0 1.6 0.00 0.03 0.00 96 1005.2
20260506172905 17 359 1.6 1.6 0.00 0.03 0.00 96 1005.2
20260506172405 17 359 1.6 1.6 0.00 0.03 0.00 96 1005.2
20260506171905 17 359 0.0 0.0 0.00 0.03 0.00 96 1005.2
20260506171405 17 359 0.0 0.0 0.00 0.03 0.00 96 1005.2
20260506170905 18 359 0.0 0.0 0.00 0.03 0.00 96 1005.1
20260506170406 18 359 0.0 1.6 0.00 0.03 0.00 96 1005.3
20260506165905 18 359 0.0 1.6 0.00 0.03 0.00 96 1005.3
20260506165405 18 359 0.0 1.6 0.00 0.03 0.00 96 1005.5
20260506164405 18 359 0.0 0.0 0.00 0.03 0.00 96 1005.3
20260506163905 18 359 0.0 0.0 0.00 0.03 0.00 95 1005.3
20260506163405 18 359 0.0 1.6 0.00 0.03 0.00 95 1005.4
20260506162905 18 359 0.0 0.0 0.00 0.03 0.00 95 1005.5
20260506162405 18 359 0.0 0.0 0.00 0.03 0.00 95 1005.5
20260506161905 18 359 0.0 0.0 0.00 0.03 0.00 95 1005.5
20260506161406 18 359 0.0 0.0 0.00 0.03 0.00 95 1005.5
20260506160905 18 359 0.0 0.0 0.00 0.03 0.00 95 1005.6
20260506160405 18 359 0.0 0.0 0.00 0.03 0.00 95 1005.6
20260506155905 18 359 0.0 0.0 0.00 0.03 0.00 96 1005.5
20260506155405 18 359 0.0 0.0 0.00 0.03 0.00 96 1005.6
20260506154905 18 359 0.0 0.0 0.00 0.03 0.00 96 1005.6
20260506154405 18 359 0.0 0.0 0.00 0.03 0.00 96 1005.6
20260506153905 18 359 0.0 0.0 0.00 0.03 0.00 96 1005.6
20260506153405 18 359 0.0 0.0 0.00 0.03 0.00 96 1005.7
20260506152904 18 359 0.0 0.0 0.00 0.03 0.00 95 1005.8
20260506152405 18 359 0.0 1.6 0.00 0.03 0.00 95 1005.9
20260506151905 18 359 1.6 1.6 0.00 0.03 0.00 95 1005.9
20260506151405 18 359 0.0 0.0 0.00 0.03 0.00 95 1006.0
20260506150905 18 359 0.0 0.0 0.00 0.03 0.00 95 1006.1
20260506150405 18 359 0.0 0.0 0.00 0.03 0.00 95 1006.2
20260506145905 18 359 0.0 0.0 0.00 0.03 0.00 95 1006.2
20260506145405 18 359 0.0 0.0 0.00 0.03 0.00 95 1006.2
20260506144905 18 359 0.0 0.0 0.00 0.03 0.00 95 1006.3
20260506144404 18 359 0.0 0.0 0.00 0.03 0.00 95 1006.4
20260506143905 18 359 0.0 0.0 0.00 0.03 0.00 95 1006.4
20260506143405 18 359 0.0 0.0 0.00 0.03 0.00 95 1006.4
20260506142904 18 359 0.0 0.0 0.00 0.03 0.00 95 1006.3
20260506142405 19 359 0.0 0.0 0.00 0.03 0.00 95 1006.3
20260506141904 19 359 0.0 0.0 0.00 0.03 0.00 95 1006.3
20260506141405 19 359 0.0 1.6 0.00 0.03 0.00 95 1006.4
20260506140904 19 359 0.0 0.0 0.00 0.03 0.00 95 1006.3
20260506140404 19 359 0.0 0.0 0.00 0.03 0.00 95 1006.3
20260506135905 19 359 0.0 0.0 0.00 0.03 0.03 95 1006.3
20260506135405 19 359 0.0 0.0 0.00 0.03 0.03 95 1006.3
20260506134904 19 359 0.0 0.0 0.00 0.03 0.03 94 1006.3
20260506134404 19 359 0.0 0.0 0.00 0.03 0.03 94 1006.3
20260506133905 19 359 0.0 0.0 0.00 0.03 0.03 94 1006.3
20260506133404 20 359 0.0 0.0 0.00 0.03 0.03 94 1006.3
20260506132904 20 359 0.0 0.0 0.00 0.03 0.03 94 1006.3
20260506132405 20 359 0.0 0.0 0.00 0.03 0.03 95 1006.4
20260506131904 20 359 0.0 0.0 0.00 0.03 0.03 95 1006.4
20260506131405 20 359 0.0 0.0 0.00 0.03 0.03 95 1006.4
20260506130905 20 359 0.0 0.0 0.00 0.03 0.03 95 1006.5
20260506130405 20 359 0.0 0.0 0.00 0.03 0.03 95 1006.6
20260506125904 20 359 0.0 0.0 0.00 0.03 0.03 95 1006.7
20260506125405 20 359 0.0 0.0 0.00 0.03 0.03 95 1006.7
20260506124905 20 359 0.0 0.0 0.00 0.03 0.03 95 1006.7
20260506124404 20 359 0.0 0.0 0.00 0.03 0.03 95 1006.7
20260506123904 20 359 0.0 0.0 0.00 0.03 0.03 95 1006.7
20260506123404 20 359 0.0 0.0 0.00 0.03 0.03 95 1006.7
20260506122904 20 359 0.0 0.0 0.00 0.03 0.03 95 1006.6
20260506122404 20 359 0.0 0.0 0.00 0.03 0.03 95 1006.7
20260506121904 20 359 0.0 0.0 0.00 0.03 0.03 95 1006.8
20260506121404 20 359 0.0 0.0 0.00 0.03 0.03 95 1006.8
20260506120905 20 359 0.0 0.0 0.00 0.03 0.03 95 1006.8
20260506120404 20 359 0.0 0.0 0.00 0.03 0.03 95 1006.7
20260506115904 20 359 0.0 0.0 0.00 0.03 0.03 94 1006.7
20260506115404 20 359 0.0 0.0 0.00 0.03 0.03 94 1006.7
20260506114905 20 359 0.0 0.0 0.00 0.03 0.03 94 1006.6
20260506114404 20 359 0.0 0.0 0.00 0.03 0.03 94 1006.7
20260506113904 20 359 0.0 0.0 0.00 0.03 0.03 94 1006.9
20260506113405 20 359 0.0 0.0 0.00 0.03 0.03 94 1006.9
20260506112904 20 359 0.0 0.0 0.00 0.03 0.03 94 1007.0
20260506112404 20 359 0.0 0.0 0.00 0.03 0.03 94 1007.0
20260506111905 20 359 0.0 0.0 0.00 0.03 0.03 94 1007.0
20260506111404 20 359 0.0 0.0 0.00 0.03 0.03 94 1007.0
20260506110904 20 359 0.0 0.0 0.00 0.03 0.03 94 1007.0
20260506110404 20 359 0.0 0.0 0.00 0.03 0.03 94 1007.0
20260506105904 20 359 0.0 0.0 0.00 0.03 0.03 94 1007.0
20260506105404 20 359 0.0 0.0 0.00 0.03 0.03 94 1007.1
20260506104904 20 359 0.0 0.0 0.00 0.03 0.03 94 1007.2
20260506104404 20 359 0.0 0.0 0.00 0.03 0.03 94 1007.3
20260506103904 20 359 0.0 0.0 0.00 0.03 0.03 93 1007.2
20260506103404 20 359 0.0 0.0 0.00 0.03 0.03 93 1007.3
20260506102904 20 359 0.0 0.0 0.00 0.03 0.03 93 1007.2
20260506102404 20 359 0.0 0.0 0.00 0.03 0.03 93 1007.1
20260506101904 20 359 0.0 0.0 0.00 0.03 0.03 93 1007.2
20260506101404 20 359 0.0 0.0 0.00 0.03 0.03 93 1007.2
20260506100904 20 359 0.0 0.0 0.00 0.03 0.03 93 1007.3
20260506100404 20 359 0.0 0.0 0.00 0.03 0.03 93 1007.2
20260506095904 20 359 0.0 0.0 0.00 0.03 0.03 93 1007.2
20260506095403 20 359 0.0 0.0 0.00 0.03 0.03 92 1007.1
20260506094904 20 359 0.0 0.0 0.00 0.03 0.03 92 1007.1
20260506094404 20 359 0.0 0.0 0.00 0.03 0.03 92 1007.0
20260506093904 20 359 0.0 0.0 0.00 0.03 0.03 92 1007.1
20260506093404 20 359 0.0 0.0 0.00 0.03 0.03 92 1007.1
20260506092904 21 359 0.0 0.0 0.00 0.03 0.03 91 1007.0
20260506092405 21 359 0.0 1.6 0.00 0.03 0.03 91 1006.9
20260506091906 21 359 1.6 3.2 0.00 0.03 0.03 91 1006.9
20260506091405 21 359 1.6 3.2 0.00 0.03 0.03 91 1006.9
20260506090906 21 359 1.6 3.2 0.00 0.03 0.03 91 1006.9
20260506090405 21 359 1.6 3.2 0.00 0.03 0.03 91 1006.9